Tracking 18871 objects as of 13-Dec-2017
HD Live streaming from Space Station
objects crossing your sky now

TITAN 3 R/B(2)

Track TITAN 3 R/B(2) now!


NORAD ID: 20669
Int'l Code: 1990-056C
Perigee: 313.1 km
Apogee: 32,987.5 km
Inclination: 24.5 °
Period: 579.4 minutes
Semi major axis: 23021 km
RCS: 6.947 m2 (large)
Launch date: June 23, 1990
Source: United States (US)
Launch site: AIR FORCE EASTERN TEST RANGE (AFETR)

Note: This is a ROCKET BODY
aabbcc
Your satellite tracking list
Your tracking list is empty




NASA's NSSDC Master Catalog

Two Line Element Set (TLE):
1 20669U 90056C   17346.29920656 +.00000124 +00000-0 +10543-3 0  9996
2 20669 024.5140 012.7819 7096567 151.5962 279.2755 02.48546873231840
Source of the keplerian elements: AFSPC